Weather Service Report


640 
ASUS44 KEWX 210902
RWRTX 
SOUTH TEXAS REGIONAL WEATHER ROUNDUP
NATIONAL WEATHER SERVICE AUSTIN/SAN ANTONIO TX
400 AM CDT THU AUG 21 2014

NOTE: "FAIR" INDICATED FEW OR NO CLOUDS BELOW 12,000 FEET WITH NO
SIGNIFICANT WEATHER AND/OR OBSTRUCTIONS TO VISIBILITY.

* - THESE STATIONS ARE NOT NWS OR FAA STATIONS...AND ARE NOT SUBJECT
    TO NWS AND FAA QUALITY CONTROL.
 
TXZ171-172-183>190-211000-
TEXAS HILL COUNTRY AND EDWARDS PLATEAU
  
CITY           SKY/WX    TMP DP  RH WIND       PRES   REMARKS
JUNCTION       CLEAR     78  71  79 S13       29.99F                  
*LLANO         MOCLDY    81  70  69 S5        30.03S                  
BURNET         PTCLDY    78  71  79 S13G23    30.02F                  
*HORSESHOE BAY CLEAR     79  70  73 S9G21     29.99S                  
*KERRVILLE     CLOUDY    76  72  86 CALM      30.02F                  
*FREDERICKSBRG MOCLDY    77  69  78 S9        30.02S                  
*ROCKSPRINGS   CLOUDY    75  72  88 SE10G18   30.04S                  
*BOERNE STAGE  CLOUDY    79  70  73 S14       30.03S                  
*CASTROVILLE   CLOUDY    82  72  71 SE14      30.00S                  
HONDO          CLOUDY    80  74  81 SE14      29.99F                  
*UVALDE        CLOUDY    81  75  84 SE9       29.97R                  
DEL RIO        MOCLDY    82  70  66 E8        29.92S                  
LAUGHLIN AFB   PTCLDY    80  72  76 SE12      29.94S                  
CARRIZO SPRGS  CLEAR     82  72  69 SE10G21   29.92S                  
$$

TXZ173-191>194-202-209-217>225-228-211000-
CENTRAL AND SOUTH CENTRAL TEXAS
  
CITY           SKY/WX    TMP DP  RH WIND       PRES   REMARKS
GEORGETOWN     CLOUDY    81  73  78 S14G22    30.01S                  
AUSTIN/BERGSTM PTCLDY    80  75  84 S9        29.99S                  
AUSTIN/MABRY   PTCLDY    80  74  81 S6        30.00S                  
*AUSTIN/EXEC     N/A     79  75  89 S5        30.00F                  
*LAGO VISTA    CLOUDY    79  73  81 S5        30.02F                  
SAN MARCOS     MOCLDY    81  72  74 S12       30.01F                  
NEW BRAUNFELS  MOCLDY    80  75  84 S9        29.98F                  
RANDOLPH AFB   MOCLDY    82  73  74 S12       29.99F                  
PT SAN ANTONIO PTCLDY    82  73  75 S14G23    29.97S                  
SAN ANTONIO    CLOUDY    83  74  74 SE15      29.99F                  
STINSON FIELD  MOCLDY    82  75  79 SE8       29.96F                  
*PLEASANTON    PTCLDY    82  73  73 SE10G21   29.97F                  
*LA GRANGE     PTCLDY    80  78  94 S5        29.97F                  
*GIDDINGS      MOCLDY    80  76  87 S7        30.03F                  
*GONZALES      CLOUDY    82  78  87 S8        29.98F HX  92           
$$

TXZ163>164-176>182-195>201-210>213-226-227-235-211000-
SOUTHEAST TEXAS
  
CITY           SKY/WX    TMP DP  RH WIND       PRES   REMARKS
COLLEGE STN    MOCLDY    79  76  90 S8        30.00S                  
*BRYAN         CLOUDY    78  76  94 SE6       29.99F                  
*CALDWELL      MOCLDY    79  77  94 S9        30.03S                  
*CROCKETT        N/A    N/A N/A N/A MISG        N/A                   
*BRENHAM       MOCLDY    80  77  92 S5        30.00F                  
HUNTSVILLE     CLEAR     78  76  93 S5        30.01F                  
CONROE         CLEAR     75  75 100 SE6       30.02F                  
HOUSTON BUSH   PTCLDY    81  77  88 S5        30.01S                  
HOUSTON HOBBY  CLEAR     79  76  90 CALM      30.00F                  
*HOUSTON SW AP FOG       75  75 100 MISG      30.01S VSB 3/4          
PEARLAND       CLEAR     81  77  88 SE5       30.02S                  
HOUSTON HOOKS  CLEAR     79  78  97 CALM      30.01F                  
ELLINGTON FLD  PTCLDY    81  75  83 CALM      30.02S                  
SUGAR LAND     PTCLDY    80  77  90 S5        30.00F                  
*HOUSTON EXEC  CLEAR     77  77 100 SE5       30.02F                  
*CLEVELAND MUN FOG       72  72  99 CALM      30.02F VSB 3/4          
*WHARTON       CLEAR     80  78  94 S7        30.00F                  
$$

TXZ214>216-236>238-211000-
THE UPPER TEXAS COAST
  
CITY           SKY/WX    TMP DP  RH WIND       PRES   REMARKS
*ORANGE        MOCLDY    82  79  88 CALM      30.05S HX  92           
PORT ARTHUR    MOCLDY    81  77  88 CALM      30.03S                  
GALVESTON      MOCLDY    85  80  85 S15       30.02F HX  99           
ANGLETON       MOCLDY    82  79  90 S10       30.00F HX  92           
*BAY CITY      PTCLDY    84  84 100 S8        30.00F HX 104           
PALACIOS       MOCLDY    85  79  82 S17       30.00S HX  98           
$$

TXZ229>234-239>247-211000-
TEXAS COASTAL BEND AND RIO GRANDE PLAINS
  
CITY           SKY/WX    TMP DP  RH WIND       PRES   REMARKS
VICTORIA       MOCLDY    85  80  85 S13       29.99F HX  99           
*BEEVILLE      PTCLDY    82  77  82 S17       29.98S HX  90           
ROCKPORT       PTCLDY    83  78  85 S12G20    29.98S HX  93           
*PORT ARANSAS  CLEAR     81  78  90 S13       29.98S                  
*PORT LAVACA   PTCLDY    82  78  89 S7        29.98F HX  90           
*INGLESIDE     CLEAR     84  77  79 S15G22    29.98S HX  94           
CORPUS CHRISTI PTCLDY    82  76  81 S18       29.97F                  
CORPUS NAS     CLEAR     82  79  90 S15G22    29.97F HX  92           
*ROBSTOWN      NOT AVBL                                               
ALICE          PTCLDY    82  77  84 S13       29.96S HX  90           
KINGSVILLE NAS CLEAR     83  78  85 S15       29.97S HX  93           
COTULLA        CLEAR     83  73  72 SE12      29.94S                  
*FAITH RANCH   CLEAR     82  72  69 SE15G21   29.93S                  
LAREDO         CLEAR     84  73  69 SE16G25   29.95S HX  90           
$$

TXZ248>255-211000-
DEEP SOUTH TEXAS
  
CITY           SKY/WX    TMP DP  RH WIND       PRES   REMARKS
BROWNSVILLE    CLEAR     81  76  84 S12       29.98F                  
PORT ISABEL    CLEAR     83  76  79 S12       29.98S HX  91           
*SOUTH PADRE     N/A     77  75  94 S8        29.99S                  
HARLINGEN      CLEAR     81  76  84 S12       29.97S                  
*HEBBRONVILLE  CLEAR     81  74  77 SE13G21   29.96F                  
MCALLEN        CLEAR     81  75  82 S10       29.97S                  
*WESLACO       CLOUDY    81  74  77 S8        29.97S                  
FALFURRIAS     CLEAR     87  74  65 SE13      29.96S HX  95           
EDINBURG       CLEAR     83  75  75 S9        29.97F HX  90           
*ZAPATA        CLOUDY    82  73  73 SE13G20   29.93F                  
$$

TXZ213>215-236>238-242>244-246-247-251-254-255-211000-
CMAN STATIONS
  
STATION/POSITION TIME  TEMP    WIND        PRES    WAVE
                       AIR SEA DIR/SP/G            HT/PER
                 (UTC) (F)     (DEG/KT/KT) (MB)    (FT/S)
SABINE PASS      0800   85 87  200/ 11/ 15 1017.0
SEA RIM ST PARK  0800   85     200/ 13/ 17 1017.3
NORTH JETTY/GLS  0800   85 87  210/ 18/ 21   N/A
EAGLE POINT      0800   85 86  200/ 15/ 18 1016.2
MORGANS POINT    0800   84     180/  6/ 10 1016.2
MISSION/ARANSAS  0800   83     170/ 17     1017.0
PORT O'CONNOR    0800          160/ 15/ 19   N/A
PORT ARANSAS     0800   83 84  160/ 17/ 20 1015.8
MALAQUITE BEACH  0800   81 82  150/ 15/ 17 1014.5
BAFFIN BAY       0800   81 81  170/ 18/ 22 1015.0
PORT ISABEL      0800   83 80  150/  7/ 10 1015.8
$$

GMZ080-GMZ150>470-211000-
OFFSHORE BUOY REPORTS
  
STATION/POSITION TIME  TEMP    WIND        PRES    WAVE
                       AIR SEA DIR/SP/G            HT/PER
                 (UTC) (F)     (DEG/KT/KT) (MB)    (FT/S)
90 E PT ARANSAS  0900   85 85  170/ 17/ 19 1016.2    4/ 6
35 NE PT MANSFLD 0800   85 86  170/ 19/ 23 1014.9    5/ 6
200 E PT ISABEL  0800   85 86  170/ 14/ 16 1016.9    3/ 6
$$

Return to Home page


Western Regional Climate Center, wrcc@dri.edu